Hourly Data Report for October 23, 2016

All times are specified in Local Standard Time (LST). Add 1 hour to adjust for Daylight Saving Time where and when it is observed.

KUGLUKTUK A
NUNAVUT

67°49'00.000" N
115°08'38.000" W
22.60 m
2300903
71938
YCO

Download Data

Hourly Data (October 2016)
Hourly Data Report for October 23, 2016
Temp Definition
°C
Dew Point Temp Definition
°C
Rel Hum Definition
%
Wind Dir Definition
10's deg

Wind Spd Definition
km/h
Visibility Definition
km
Stn Press Definition
kPa
Hmdx Definition


Wind Chill Definition


Weather Definition


TIME
00:00 Legend Double Dagger -4.9 -7.2 84 21 5 24.1 102.15   -7 LegendNANA
01:00 Legend Double Dagger -5.7 -7.4 88 20 9 24.1 102.21   -10 LegendNANA
02:00 Legend Double Dagger -6.2 -7.7 89 22 13 24.1 102.23   -12 Mostly Cloudy
03:00 Legend Double Dagger -5.1 -7.1 86 25 16 24.1 102.27   -11 LegendNANA
04:00 Legend Double Dagger -4.9 -7.2 84 28 14 24.1 102.31   -10 LegendNANA
05:00 Legend Double Dagger -5.6 -7.3 88 23 10 24.1 102.38   -10 Cloudy
06:00 Legend Double Dagger -6.5 -8.2 88 23 16 24.1 102.40   -13 LegendNANA
07:00 Legend Double Dagger -7.9 -9.3 90 24 14 24.1 102.45   -14 LegendNANA
08:00 Legend Double Dagger -7.9 -9.0 92 24 13 16.1 102.50   -14 Mainly Clear
09:00 Legend Double Dagger -9.3 -10.2 93 21 15 16.1 102.58   -16 LegendNANA
10:00 Legend Double Dagger -7.4 -8.2 94 23 11 12.9 102.63   -12 LegendNANA
11:00 Legend Double Dagger -6.9 -7.7 94 21 14 12.9 102.68   -13 Cloudy
12:00 Legend Double Dagger -6.1 -6.8 95 21 13 16.1 102.74   -11 LegendNANA
13:00 Legend Double Dagger -5.5 -6.3 94 24 14 19.3 102.78   -11 Snow
14:00 Legend Double Dagger -4.4 -5.2 94 26 9 19.3 102.81   -8 Snow
15:00 Legend Double Dagger -3.9 -4.9 93 28 11 19.3 102.85   -8 Snow
16:00 Legend Double Dagger -1.5 -3.2 88 1 14 16.1 102.88   -6 Snow
17:00 Legend Double Dagger -1.9 -3.2 91 3 21 16.1 102.92   -8 Snow
18:00 Legend Double Dagger -1.9 -4.4 83 4 18 6.4 102.97   -7 Snow
19:00 Legend Double Dagger -1.9 -5.8 75 4 23 16.1 103.01   -8 Snow
20:00 Legend Double Dagger -2.1 -5.6 77 5 16 12.9 103.05   -7 Snow
21:00 Legend Double Dagger -2.3 -6.1 75 7 16 12.9 103.06   -7 Snow
22:00 Legend Double Dagger -2.6 -6.3 76 7 12 6.4 103.10   -7 Snow
23:00 Legend Double Dagger -3.2 -5.7 83 9 13 12.9 103.11   -8 Snow

Notes on Data Quality.

Legend

  • E = Estimated
  • M = Missing
  • NA = Not Available
  • ‡ = Partner data that is not subject to review by the National Climate Archives
Date modified: